Regional Weather Roundup
Issued by NWS Newport/Morehead, NC

Home | Current Version | Previous Version | Text Only | Print | Product List | Glossary On
Versions: 1 2 3 4 5 6 7 8 9 10 11 12 13 14 15 16 17 18 19 20 21 22 23 24 25 26 27 28 29 30 31 32 33 34 35 36 37 38 39 40 41 42 43 44 45 46 47 48 49 50
000
ASUS42 KMHX 060225
RWRMHX
WEATHER ROUNDUP FOR EASTERN NORTH CAROLINA
NATIONAL WEATHER SERVICE NEWPORT/MOREHEAD CITY NC
1000 PM EDT THU MAY 05 2016

NOTE: "FAIR" INDICATES FEW OR NO CLOUDS BELOW 12,000 FEET
WITH NO SIGNIFICANT WEATHER AND/OR OBSTRUCTIONS TO VISIBILITY

NCZ015>017-031-032-045>047-102-103-060300-
NORTH COAST

CITY           SKY/WX    TMP DP  RH WIND       PRES   REMARKS
EDENTON        CLOUDY    51  51 100 NE9G16    29.61F
ELIZABETH CITY RAIN      51  49  92 N13       29.63F FOG
KITTY HAWK     DRIZZLE   50  49  98 N6        29.61F
MANTEO         CLOUDY    50  50  99 NE18G24   29.62F

$$

NCZ045>047-081-094-103-104-060300-
CENTRAL COAST

CITY           SKY/WX    TMP DP  RH WIND       PRES   REMARKS
FRISCO         CLOUDY    54  50  86 N9G21     29.60R
SWANQUARTER    NOT AVBL

$$

NCZ095-097-098-100-101-060300-
SOUTHERN COAST

CITY           SKY/WX    TMP DP  RH WIND       PRES   REMARKS
BEAUFORT       LGT RAIN  55  52  89 N8        29.64R
CEDAR ISLAND   NOT AVBL
JACKSONVILLE   LGT RAIN  55  52  89 NW9       29.65R
PINEY ISLAND   CLOUDY   N/A N/A N/A N7        29.63R
WILMINGTON     CLEAR     55  48  77 W6        29.66R


$$

NCZ011>013-027>030-043-044-078>080-089-090>093-098-060300-
COASTAL PLAIN

CITY           SKY/WX    TMP DP  RH WIND       PRES   REMARKS
AHOSKIE        LGT RAIN  51  50  96 N8        29.64R
CLINTON        PTCLDY    51  48  89 W8        29.68R
ELIZABETHTOWN  MOCLDY    54  46  75 NW8       29.69R
GOLDSBORO      NOT AVBL
GREENVILLE     CLOUDY    54  52  94 E3        29.67S
HAVELOCK       CLOUDY    56  52  86 NE7       29.65R
KENANSVILLE    CLOUDY    53  49  87 W10       29.67R
KINSTON        NOT AVBL
NEW BERN       LGT RAIN  54  52  93 NE6       29.65S FOG
RICHLANDS      LGT RAIN  55  53  93 VRB3      29.65R
ROCKY MOUNT    LGT RAIN  52  52 100 NE7       29.64R FOG
WASHINGTON     CLOUDY    52  50  93 E3        29.64R
WHITEVILLE     NOT AVBL

$$

AMZ130-135-150-152-154-156-158-170-250-252-270-ANZ085-086-088-633-658-670-060300-
MARINE OBSERVATIONS

STATION/POSITION TIME  TEMP    WIND        PRES    WAVE   SWELL
                       AIR SEA DIR/SP/G            HT/PER HT/PER
                 (UTC) (F)     (DEG/KT/KT) (MB)    (FT/S) (FT/S)
CHESAPEAKE LIGHT 0200   50      30/ 21/ 22 1003.9
64 E VA BEACH    0150   50 51  350/ 19/ 23 1001.1    8/ 8
DUCK             0200                      1002.5
2 E DUCK         0111      59                N/A     7/ 7
OREGON INLET     0200                      1002.5
13E OREGON INLT  0200      55                N/A     8/ 8
HATTERAS CG      0200                      1001.8
DIAMOND BUOY     0150   56 76  360/ 19/ 23 1001.6    5/ 7
CAPE LOOKOUT     0200   56     360/ 10/ 11 1003.1
BEAUFORT LAB     0200                      1002.7
30 SE NEW RVR IN 0125      73                N/A     5/ 5
27 SE WRIGHTSVLE 0208   62 72  310/ 14/ 19 1004.0
5 SE WRIGHTSVLE  0208   60 69  310/ 12/ 17 1004.8
225 S CAPE HAT   0150   71 74  260/ 19/ 25 1004.9   10/ 8
41 SE CHARLESTON 0150   67 73  300/ 21/ 23 1005.5    6/ 6   2/12

$$




USA.gov is the U.S. government's official web portal to all federal, state and local government web resources and services.